| time (UTC) | temp F | wind direction | speed MPH | gust MPH | rain 1hr in | rain 24hr in | rain mn in | humidity % | barometer mb |
| 20260510163505 | 50 | 7 | 5.0 | 16.0 | 0.00 | 0.00 | 0.00 | 46 | 1019.5 |
| 20260510163005 | 50 | 49 | 3.0 | 9.0 | 0.00 | 0.00 | 0.00 | 46 | 1019.4 |
| 20260510162505 | 50 | 129 | 1.0 | 5.0 | 0.00 | 0.00 | 0.00 | 45 | 1019.3 |
| 20260510162005 | 51 | 98 | 3.0 | 8.0 | 0.00 | 0.00 | 0.00 | 45 | 1019.3 |
| 20260510161005 | 50 | 335 | 1.0 | 9.0 | 0.00 | 0.00 | 0.00 | 48 | 1019.1 |
| 20260510160504 | 50 | 346 | 1.0 | 12.0 | 0.00 | 0.00 | 0.00 | 47 | 1019.0 |
| 20260510160005 | 50 | 308 | 5.0 | 14.0 | 0.00 | 0.00 | 0.00 | 46 | 1019.0 |
| 20260510155504 | 50 | 323 | 5.0 | 12.0 | 0.00 | 0.00 | 0.00 | 45 | 1018.9 |
| 20260510154504 | 49 | 68 | 3.0 | 12.0 | 0.00 | 0.00 | 0.00 | 46 | 1019.1 |
| 20260510153005 | 49 | 351 | 1.0 | 10.0 | 0.00 | 0.00 | 0.00 | 47 | 1019.0 |
| 20260510152504 | 48 | 265 | 5.0 | 12.0 | 0.00 | 0.00 | 0.00 | 47 | 1018.9 |
| 20260510152004 | 48 | 342 | 3.0 | 7.0 | 0.00 | 0.00 | 0.00 | 48 | 1018.9 |
| 20260510151505 | 48 | 317 | 4.0 | 7.0 | 0.00 | 0.00 | 0.00 | 47 | 1018.8 |
| 20260510151004 | 48 | 336 | 4.0 | 8.0 | 0.00 | 0.00 | 0.00 | 48 | 1018.7 |
| 20260510150504 | 48 | 17 | 1.0 | 10.0 | 0.00 | 0.00 | 0.00 | 48 | 1018.5 |
| 20260510150005 | 47 | 23 | 3.0 | 9.0 | 0.00 | 0.00 | 0.00 | 46 | 1018.6 |
| 20260510145505 | 47 | 342 | 3.0 | 12.0 | 0.00 | 0.00 | 0.00 | 48 | 1018.5 |
| 20260510144504 | 46 | 345 | 4.0 | 8.0 | 0.00 | 0.00 | 0.00 | 51 | 1018.6 |
| 20260510144004 | 46 | 8 | 4.0 | 12.0 | 0.00 | 0.00 | 0.00 | 50 | 1018.6 |
| 20260510143505 | 46 | 343 | 6.0 | 12.0 | 0.00 | 0.00 | 0.00 | 51 | 1018.5 |
| 20260510143005 | 46 | 53 | 3.0 | 7.0 | 0.00 | 0.00 | 0.00 | 56 | 1018.5 |
| 20260510141505 | 45 | 302 | 1.0 | 6.0 | 0.00 | 0.00 | 0.00 | 56 | 1018.6 |
| 20260510141004 | 45 | 342 | 3.0 | 9.0 | 0.00 | 0.00 | 0.00 | 58 | 1018.5 |
| 20260510140004 | 44 | 356 | 3.0 | 8.0 | 0.00 | 0.00 | 0.00 | 59 | 1018.4 |
| 20260510135504 | 44 | 346 | 4.0 | 10.0 | 0.00 | 0.00 | 0.00 | 59 | 1018.4 |
| 20260510135005 | 44 | 1 | 3.0 | 7.0 | 0.00 | 0.00 | 0.00 | 62 | 1018.2 |
| 20260510134505 | 44 | 67 | 2.0 | 9.0 | 0.00 | 0.00 | 0.00 | 63 | 1018.3 |
| 20260510134005 | 43 | 325 | 1.0 | 8.0 | 0.00 | 0.00 | 0.00 | 64 | 1018.3 |
| 20260510132505 | 43 | 332 | 3.0 | 8.0 | 0.00 | 0.00 | 0.00 | 66 | 1018.2 |
| 20260510132005 | 42 | 356 | 5.0 | 7.0 | 0.00 | 0.00 | 0.00 | 67 | 1018.2 |
| 20260510131505 | 42 | 307 | 3.0 | 9.0 | 0.00 | 0.00 | 0.00 | 68 | 1018.2 |
| 20260510131004 | 42 | 335 | 3.0 | 9.0 | 0.00 | 0.00 | 0.00 | 68 | 1018.1 |
| 20260510130504 | 42 | 38 | 1.0 | 3.0 | 0.00 | 0.00 | 0.00 | 68 | 1018.1 |
| 20260510130005 | 41 | 36 | 2.0 | 3.0 | 0.00 | 0.00 | 0.00 | 69 | 1018.2 |
| 20260510125505 | 41 | 36 | 1.0 | 8.0 | 0.00 | 0.00 | 0.00 | 69 | 1018.1 |
| 20260510125004 | 41 | 8 | 2.0 | 10.0 | 0.00 | 0.00 | 0.00 | 69 | 1018.1 |
| 20260510124504 | 41 | 344 | 3.0 | 12.0 | 0.00 | 0.00 | 0.00 | 71 | 1018.2 |
| 20260510124004 | 40 | 332 | 2.0 | 7.0 | 0.00 | 0.00 | 0.00 | 73 | 1018.0 |
| 20260510123504 | 40 | 42 | 1.0 | 6.0 | 0.00 | 0.00 | 0.00 | 74 | 1017.8 |
| 20260510123005 | 39 | 340 | 2.0 | 6.0 | 0.00 | 0.00 | 0.00 | 75 | 1017.7 |
| 20260510122504 | 39 | 13 | 1.0 | 7.0 | 0.00 | 0.00 | 0.00 | 77 | 1017.7 |
| 20260510121504 | 37 | 333 | 2.0 | 3.0 | 0.00 | 0.00 | 0.00 | 81 | 1017.5 |
| 20260510121004 | 35 | 324 | 1.0 | 5.0 | 0.00 | 0.00 | 0.00 | 84 | 1017.4 |
| 20260510120505 | 34 | 320 | 2.0 | 6.0 | 0.00 | 0.00 | 0.00 | 85 | 1017.4 |
| 20260510115504 | 31 | 332 | 1.0 | 3.0 | 0.00 | 0.00 | 0.00 | 85 | 1017.3 |
| 20260510115005 | 31 | 18 | 0.0 | 2.0 | 0.00 | 0.00 | 0.00 | 85 | 1017.2 |
| 20260510114505 | 31 | 57 | 0.0 | 0.0 | 0.00 | 0.00 | 0.00 | 85 | 1017.1 |
| 20260510114005 | 30 | 57 | 0.0 | 0.0 | 0.00 | 0.00 | 0.00 | 85 | 1017.1 |
| 20260510113505 | 30 | 57 | 0.0 | 0.0 | 0.00 | 0.00 | 0.00 | 85 | 1017.1 |
| 20260510113005 | 30 | 57 | 0.0 | 0.0 | 0.00 | 0.00 | 0.00 | 84 | 1017.0 |
| 20260510112505 | 30 | 57 | 0.0 | 0.0 | 0.00 | 0.00 | 0.00 | 84 | 1016.9 |
| 20260510111504 | 31 | 57 | 0.0 | 0.0 | 0.00 | 0.00 | 0.00 | 84 | 1016.8 |
| 20260510111004 | 31 | 57 | 0.0 | 0.0 | 0.00 | 0.00 | 0.00 | 83 | 1016.6 |
| 20260510110505 | 31 | 57 | 0.0 | 0.0 | 0.00 | 0.00 | 0.00 | 83 | 1016.6 |
| 20260510110005 | 31 | 57 | 0.0 | 0.0 | 0.00 | 0.00 | 0.00 | 83 | 1016.6 |
| 20260510105505 | 31 | 57 | 0.0 | 0.0 | 0.00 | 0.00 | 0.00 | 83 | 1016.6 |
| 20260510104504 | 31 | 57 | 0.0 | 0.0 | 0.00 | 0.00 | 0.00 | 82 | 1016.5 |
| 20260510104005 | 31 | 57 | 0.0 | 0.0 | 0.00 | 0.00 | 0.00 | 82 | 1016.4 |
| 20260510103504 | 32 | 57 | 0.0 | 0.0 | 0.00 | 0.00 | 0.00 | 82 | 1016.3 |
| 20260510103004 | 32 | 57 | 0.0 | 0.0 | 0.00 | 0.00 | 0.00 | 81 | 1016.3 |
| 20260510102504 | 32 | 57 | 0.0 | 0.0 | 0.00 | 0.00 | 0.00 | 81 | 1016.2 |
| 20260510102004 | 32 | 57 | 0.0 | 0.0 | 0.00 | 0.00 | 0.00 | 81 | 1016.1 |
| 20260510101504 | 33 | 57 | 0.0 | 0.0 | 0.00 | 0.00 | 0.00 | 80 | 1016.1 |
| 20260510101005 | 33 | 57 | 0.0 | 0.0 | 0.00 | 0.00 | 0.00 | 80 | 1016.0 |
| 20260510100505 | 33 | 57 | 0.0 | 0.0 | 0.00 | 0.00 | 0.00 | 80 | 1016.0 |
| 20260510100005 | 34 | 57 | 0.0 | 0.0 | 0.00 | 0.00 | 0.00 | 80 | 1015.9 |
| 20260510095505 | 34 | 57 | 0.0 | 0.0 | 0.00 | 0.00 | 0.00 | 80 | 1015.9 |
| 20260510095005 | 34 | 57 | 0.0 | 0.0 | 0.00 | 0.00 | 0.00 | 80 | 1015.8 |
| 20260510094504 | 34 | 57 | 0.0 | 0.0 | 0.00 | 0.00 | 0.00 | 79 | 1015.8 |
| 20260510094005 | 35 | 57 | 0.0 | 0.0 | 0.00 | 0.00 | 0.00 | 79 | 1015.7 |
| 20260510093505 | 35 | 57 | 0.0 | 0.0 | 0.00 | 0.00 | 0.00 | 80 | 1015.6 |
| 20260510093005 | 35 | 57 | 0.0 | 0.0 | 0.00 | 0.00 | 0.00 | 80 | 1015.6 |
| 20260510092005 | 35 | 57 | 0.0 | 0.0 | 0.00 | 0.00 | 0.00 | 80 | 1015.6 |
| 20260510091005 | 35 | 57 | 0.0 | 0.0 | 0.00 | 0.00 | 0.00 | 80 | 1015.4 |
| 20260510090505 | 35 | 57 | 0.0 | 0.0 | 0.00 | 0.00 | 0.00 | 80 | 1015.3 |
| 20260510085504 | 34 | 57 | 0.0 | 0.0 | 0.00 | 0.00 | 0.00 | 80 | 1015.1 |
| 20260510085005 | 34 | 57 | 0.0 | 0.0 | 0.00 | 0.00 | 0.00 | 82 | 1015.1 |
| 20260510084505 | 34 | 57 | 0.0 | 0.0 | 0.00 | 0.00 | 0.00 | 82 | 1015.1 |
| 20260510083505 | 33 | 57 | 0.0 | 0.0 | 0.00 | 0.00 | 0.00 | 82 | 1014.9 |
| 20260510083004 | 33 | 57 | 0.0 | 0.0 | 0.00 | 0.00 | 0.00 | 83 | 1014.9 |
| 20260510082504 | 33 | 57 | 0.0 | 0.0 | 0.00 | 0.00 | 0.00 | 83 | 1014.9 |
| 20260510082004 | 33 | 57 | 0.0 | 0.0 | 0.00 | 0.00 | 0.00 | 83 | 1014.8 |
| 20260510081504 | 32 | 57 | 0.0 | 0.0 | 0.00 | 0.00 | 0.00 | 83 | 1014.7 |
| 20260510081005 | 32 | 57 | 0.0 | 0.0 | 0.00 | 0.00 | 0.00 | 82 | 1014.6 |
| 20260510080504 | 32 | 57 | 0.0 | 0.0 | 0.00 | 0.00 | 0.00 | 82 | 1014.6 |
| 20260510080004 | 32 | 57 | 0.0 | 0.0 | 0.00 | 0.00 | 0.00 | 82 | 1014.6 |
| 20260510075505 | 32 | 57 | 0.0 | 0.0 | 0.00 | 0.00 | 0.00 | 82 | 1014.6 |
| 20260510075004 | 32 | 57 | 0.0 | 0.0 | 0.00 | 0.00 | 0.00 | 82 | 1014.8 |
| 20260510074505 | 32 | 57 | 0.0 | 0.0 | 0.00 | 0.00 | 0.00 | 83 | 1014.7 |
| 20260510074004 | 32 | 57 | 0.0 | 0.0 | 0.00 | 0.00 | 0.00 | 83 | 1014.7 |
| 20260510073504 | 31 | 57 | 0.0 | 0.0 | 0.00 | 0.00 | 0.00 | 83 | 1014.7 |
| 20260510073005 | 31 | 57 | 0.0 | 0.0 | 0.00 | 0.00 | 0.00 | 82 | 1014.7 |
| 20260510072505 | 31 | 57 | 0.0 | 0.0 | 0.00 | 0.00 | 0.00 | 82 | 1014.6 |
| 20260510072005 | 31 | 57 | 0.0 | 0.0 | 0.00 | 0.00 | 0.00 | 82 | 1014.6 |
| 20260510071504 | 31 | 57 | 0.0 | 0.0 | 0.00 | 0.00 | 0.00 | 82 | 1014.6 |
| 20260510071005 | 31 | 57 | 0.0 | 0.0 | 0.00 | 0.00 | 0.00 | 81 | 1014.6 |
| 20260510070505 | 31 | 57 | 0.0 | 0.0 | 0.00 | 0.00 | 0.00 | 81 | 1014.6 |
| 20260510065505 | 31 | 57 | 0.0 | 0.0 | 0.00 | 0.00 | 0.00 | 80 | 1014.5 |
| 20260510064004 | 31 | 57 | 0.0 | 0.0 | 0.00 | 0.00 | 0.00 | 80 | 1014.4 |
| 20260510063004 | 31 | 57 | 0.0 | 0.0 | 0.00 | 0.00 | 0.00 | 80 | 1014.4 |
| 20260510062004 | 31 | 57 | 0.0 | 0.0 | 0.00 | 0.00 | 0.00 | 79 | 1014.3 |
| 20260510061004 | 32 | 57 | 0.0 | 0.0 | 0.00 | 0.00 | 0.00 | 78 | 1014.3 |
| 20260510060504 | 32 | 57 | 0.0 | 0.0 | 0.00 | 0.00 | 0.00 | 78 | 1014.2 |
| 20260510060005 | 32 | 57 | 0.0 | 0.0 | 0.00 | 0.00 | 0.00 | 78 | 1014.3 |
| 20260510055505 | 32 | 57 | 0.0 | 0.0 | 0.00 | 0.00 | 0.00 | 78 | 1014.3 |
| 20260510055005 | 32 | 57 | 0.0 | 0.0 | 0.00 | 0.00 | 0.00 | 78 | 1014.3 |
| 20260510054504 | 32 | 57 | 0.0 | 0.0 | 0.00 | 0.00 | 0.00 | 77 | 1014.2 |
| 20260510054004 | 33 | 57 | 0.0 | 0.0 | 0.00 | 0.00 | 0.00 | 77 | 1014.2 |
| 20260510053505 | 33 | 57 | 0.0 | 0.0 | 0.00 | 0.00 | 0.00 | 76 | 1014.2 |
| 20260510053004 | 33 | 57 | 0.0 | 0.0 | 0.00 | 0.00 | 0.00 | 76 | 1014.2 |
| 20260510052505 | 33 | 57 | 0.0 | 0.0 | 0.00 | 0.00 | 0.00 | 75 | 1014.1 |
| 20260510052004 | 33 | 57 | 0.0 | 0.0 | 0.00 | 0.00 | 0.00 | 75 | 1014.1 |
| 20260510051504 | 33 | 57 | 0.0 | 0.0 | 0.00 | 0.00 | 0.00 | 74 | 1014.0 |
| 20260510050505 | 34 | 57 | 0.0 | 0.0 | 0.00 | 0.00 | 0.00 | 72 | 1014.0 |
| 20260510050005 | 34 | 57 | 0.0 | 0.0 | 0.00 | 0.00 | 0.00 | 72 | 1014.0 |
| 20260510045505 | 35 | 57 | 0.0 | 0.0 | 0.00 | 0.00 | 0.00 | 71 | 1014.0 |
| 20260510044505 | 36 | 57 | 0.0 | 0.0 | 0.00 | 0.00 | 0.00 | 69 | 1014.0 |
| 20260510044004 | 36 | 57 | 0.0 | 0.0 | 0.00 | 0.00 | 0.00 | 68 | 1014.0 |
| 20260510043505 | 36 | 57 | 0.0 | 0.0 | 0.00 | 0.00 | 0.00 | 67 | 1014.0 |
| 20260510043004 | 37 | 57 | 0.0 | 0.0 | 0.00 | 0.00 | 0.00 | 66 | 1013.9 |
| 20260510042505 | 37 | 57 | 0.0 | 0.0 | 0.00 | 0.00 | 0.00 | 65 | 1013.9 |
| 20260510042005 | 38 | 57 | 0.0 | 0.0 | 0.00 | 0.00 | 0.00 | 66 | 1013.8 |
| 20260510041505 | 38 | 57 | 0.0 | 0.0 | 0.00 | 0.00 | 0.00 | 64 | 1013.8 |
| 20260510041005 | 39 | 57 | 0.0 | 0.0 | 0.00 | 0.00 | 0.00 | 63 | 1013.7 |
| 20260510040504 | 39 | 57 | 0.0 | 0.0 | 0.00 | 0.00 | 0.00 | 61 | 1013.7 |
| 20260510040004 | 40 | 57 | 0.0 | 0.0 | 0.00 | 0.00 | 0.00 | 59 | 1013.7 |
| 20260510035505 | 41 | 57 | 0.0 | 0.0 | 0.00 | 0.00 | 0.00 | 59 | 1013.7 |
| 20260510035005 | 41 | 57 | 0.0 | 0.0 | 0.00 | 0.00 | 0.00 | 58 | 1013.6 |
| 20260510034005 | 43 | 57 | 0.0 | 0.0 | 0.00 | 0.00 | 0.00 | 56 | 1013.7 |
| 20260510033505 | 43 | 57 | 0.0 | 0.0 | 0.00 | 0.00 | 0.00 | 55 | 1013.6 |
| 20260510033005 | 43 | 57 | 0.0 | 0.0 | 0.00 | 0.00 | 0.00 | 54 | 1013.6 |
| 20260510032504 | 44 | 57 | 0.0 | 0.0 | 0.00 | 0.00 | 0.00 | 53 | 1013.6 |
| 20260510032005 | 44 | 57 | 0.0 | 0.0 | 0.00 | 0.00 | 0.00 | 50 | 1013.5 |
| 20260510031004 | 45 | 57 | 0.0 | 0.0 | 0.00 | 0.00 | 0.00 | 48 | 1013.4 |
| 20260510030505 | 45 | 57 | 0.0 | 0.0 | 0.00 | 0.00 | 0.00 | 47 | 1013.3 |
| 20260510030005 | 46 | 57 | 0.0 | 0.0 | 0.00 | 0.00 | 0.00 | 47 | 1013.3 |
| 20260510025004 | 46 | 57 | 0.0 | 0.0 | 0.00 | 0.00 | 0.00 | 46 | 1013.2 |
| 20260510024504 | 47 | 57 | 0.0 | 1.0 | 0.00 | 0.00 | 0.00 | 46 | 1013.2 |
| 20260510024004 | 47 | 57 | 0.0 | 0.0 | 0.00 | 0.00 | 0.00 | 46 | 1013.1 |
| 20260510023505 | 47 | 57 | 0.0 | 2.0 | 0.00 | 0.00 | 0.00 | 45 | 1012.9 |
| 20260510023005 | 47 | 57 | 0.0 | 1.0 | 0.00 | 0.00 | 0.00 | 45 | 1012.9 |
| 20260510022504 | 48 | 57 | 0.0 | 1.0 | 0.00 | 0.00 | 0.00 | 45 | 1012.8 |
| 20260510022005 | 48 | 69 | 0.0 | 3.0 | 0.00 | 0.00 | 0.00 | 44 | 1012.7 |
| 20260510021505 | 48 | 0 | 1.0 | 3.0 | 0.00 | 0.00 | 0.00 | 44 | 1012.6 |
| 20260510021004 | 48 | 19 | 0.0 | 2.0 | 0.00 | 0.00 | 0.00 | 43 | 1012.4 |
| 20260510020504 | 49 | 19 | 1.0 | 3.0 | 0.00 | 0.00 | 0.00 | 42 | 1012.3 |
| 20260510015505 | 49 | 316 | 1.0 | 5.0 | 0.00 | 0.00 | 0.00 | 41 | 1012.1 |
| 20260510015005 | 49 | 351 | 1.0 | 6.0 | 0.00 | 0.00 | 0.00 | 41 | 1012.0 |
| 20260510014505 | 49 | 80 | 1.0 | 3.0 | 0.00 | 0.00 | 0.00 | 41 | 1011.8 |
| 20260510014004 | 49 | 14 | 1.0 | 3.0 | 0.00 | 0.00 | 0.00 | 40 | 1011.8 |
| 20260510013005 | 50 | 62 | 1.0 | 3.0 | 0.00 | 0.00 | 0.00 | 40 | 1011.6 |
| 20260510012504 | 50 | 331 | 0.0 | 7.0 | 0.00 | 0.00 | 0.00 | 40 | 1011.3 |
| 20260510012004 | 50 | 41 | 1.0 | 7.0 | 0.00 | 0.00 | 0.00 | 40 | 1011.3 |
| 20260510011504 | 51 | 15 | 2.0 | 5.0 | 0.00 | 0.00 | 0.00 | 39 | 1011.2 |
| 20260510011005 | 51 | 331 | 1.0 | 5.0 | 0.00 | 0.00 | 0.00 | 39 | 1011.1 |
| 20260510010505 | 51 | 11 | 2.0 | 5.0 | 0.00 | 0.00 | 0.00 | 38 | 1010.9 |
| 20260510010004 | 51 | 9 | 1.0 | 7.0 | 0.00 | 0.00 | 0.00 | 38 | 1010.9 |
| 20260510005505 | 52 | 26 | 1.0 | 6.0 | 0.00 | 0.00 | 0.00 | 38 | 1010.8 |
| 20260510005004 | 52 | 73 | 1.0 | 5.0 | 0.00 | 0.00 | 0.00 | 38 | 1010.7 |
| 20260510004505 | 52 | 43 | 0.0 | 3.0 | 0.00 | 0.00 | 0.00 | 37 | 1010.6 |
| 20260510004005 | 53 | 351 | 0.0 | 3.0 | 0.00 | 0.00 | 0.00 | 38 | 1010.6 |
| 20260510003504 | 53 | 339 | 1.0 | 6.0 | 0.00 | 0.00 | 0.00 | 37 | 1010.5 |
| 20260510003004 | 53 | 342 | 1.0 | 5.0 | 0.00 | 0.00 | 0.00 | 36 | 1010.5 |
| 20260510002505 | 53 | 333 | 0.0 | 5.0 | 0.00 | 0.00 | 0.00 | 37 | 1010.4 |
| 20260510002004 | 53 | 17 | 0.0 | 8.0 | 0.00 | 0.00 | 0.00 | 37 | 1010.3 |
| 20260510001504 | 53 | 10 | 2.0 | 8.0 | 0.00 | 0.00 | 0.00 | 36 | 1010.2 |
| 20260510001004 | 53 | 30 | 3.0 | 12.0 | 0.00 | 0.00 | 0.00 | 36 | 1010.2 |
| 20260510000505 | 53 | 306 | 3.0 | 12.0 | 0.00 | 0.00 | 0.00 | 37 | 1010.1 |
| 20260509235504 | 53 | 352 | 1.0 | 10.0 | 0.00 | 0.00 | 0.00 | 36 | 1010.0 |
| 20260509235004 | 53 | 347 | 2.0 | 10.0 | 0.00 | 0.00 | 0.00 | 35 | 1010.0 |
| 20260509234504 | 54 | 27 | 2.0 | 7.0 | 0.00 | 0.00 | 0.00 | 36 | 1009.8 |
| 20260509234004 | 54 | 336 | 1.0 | 6.0 | 0.00 | 0.00 | 0.00 | 37 | 1009.8 |
| 20260509233504 | 54 | 315 | 1.0 | 5.0 | 0.00 | 0.00 | 0.00 | 37 | 1009.7 |
| 20260509233004 | 54 | 26 | 1.0 | 5.0 | 0.00 | 0.00 | 0.00 | 36 | 1009.7 |
| 20260509232005 | 54 | 94 | 1.0 | 7.0 | 0.00 | 0.00 | 0.00 | 36 | 1009.7 |
| 20260509231504 | 54 | 24 | 2.0 | 7.0 | 0.00 | 0.00 | 0.00 | 37 | 1009.6 |
| 20260509230004 | 54 | 340 | 5.0 | 12.0 | 0.00 | 0.00 | 0.00 | 34 | 1009.5 |
| 20260509225505 | 55 | 78 | 1.0 | 3.0 | 0.00 | 0.00 | 0.00 | 35 | 1009.3 |
| 20260509225005 | 55 | 100 | 0.0 | 3.0 | 0.00 | 0.00 | 0.00 | 36 | 1009.4 |
| 20260509224505 | 54 | 347 | 2.0 | 7.0 | 0.00 | 0.00 | 0.00 | 36 | 1009.3 |
| 20260509224005 | 54 | 25 | 1.0 | 3.0 | 0.00 | 0.00 | 0.00 | 37 | 1009.3 |
| 20260509223504 | 54 | 9 | 5.0 | 9.0 | 0.00 | 0.00 | 0.00 | 35 | 1009.2 |
| 20260509223004 | 54 | 36 | 1.0 | 3.0 | 0.00 | 0.00 | 0.00 | 35 | 1009.1 |
| 20260509222504 | 54 | 62 | 2.0 | 7.0 | 0.00 | 0.00 | 0.00 | 36 | 1009.2 |
| 20260509222005 | 54 | 63 | 2.0 | 8.0 | 0.00 | 0.00 | 0.00 | 36 | 1009.1 |
| 20260509221504 | 54 | 354 | 5.0 | 10.0 | 0.00 | 0.00 | 0.00 | 35 | 1009.0 |
| 20260509221004 | 55 | 323 | 2.0 | 10.0 | 0.00 | 0.00 | 0.00 | 35 | 1009.0 |
| 20260509220504 | 55 | 16 | 3.0 | 10.0 | 0.00 | 0.00 | 0.00 | 36 | 1008.9 |
| 20260509220004 | 55 | 0 | 3.0 | 7.0 | 0.00 | 0.00 | 0.00 | 34 | 1009.0 |
| 20260509215504 | 56 | 335 | 3.0 | 7.0 | 0.00 | 0.00 | 0.00 | 34 | 1009.0 |
| 20260509215004 | 56 | 14 | 0.0 | 8.0 | 0.00 | 0.00 | 0.00 | 35 | 1008.9 |
| 20260509214504 | 57 | 42 | 2.0 | 9.0 | 0.00 | 0.00 | 0.00 | 33 | 1008.9 |
| 20260509214006 | 56 | 91 | 2.0 | 5.0 | 0.00 | 0.00 | 0.00 | 36 | 1008.9 |
| 20260509213505 | 56 | 1 | 3.0 | 7.0 | 0.00 | 0.00 | 0.00 | 34 | 1008.9 |
| 20260509213004 | 57 | 65 | 2.0 | 10.0 | 0.00 | 0.00 | 0.00 | 33 | 1008.8 |
| 20260509212505 | 57 | 358 | 1.0 | 8.0 | 0.00 | 0.00 | 0.00 | 33 | 1008.7 |
| 20260509212004 | 57 | 330 | 3.0 | 8.0 | 0.00 | 0.00 | 0.00 | 36 | 1008.6 |
| 20260509211504 | 56 | 353 | 2.0 | 10.0 | 0.00 | 0.00 | 0.00 | 35 | 1008.7 |
| 20260509210505 | 55 | 5 | 1.0 | 3.0 | 0.00 | 0.00 | 0.00 | 36 | 1008.5 |
| 20260509210005 | 54 | 95 | 1.0 | 6.0 | 0.00 | 0.00 | 0.00 | 36 | 1008.5 |
| 20260509205504 | 55 | 15 | 4.0 | 12.0 | 0.00 | 0.00 | 0.00 | 35 | 1008.5 |
| 20260509205005 | 56 | 16 | 3.0 | 8.0 | 0.00 | 0.00 | 0.00 | 35 | 1008.4 |
| 20260509204504 | 56 | 7 | 2.0 | 9.0 | 0.00 | 0.00 | 0.00 | 35 | 1008.5 |
| 20260509204004 | 55 | 23 | 3.0 | 8.0 | 0.00 | 0.00 | 0.00 | 37 | 1008.3 |
| 20260509203504 | 55 | 1 | 2.0 | 7.0 | 0.00 | 0.00 | 0.00 | 36 | 1008.3 |
| 20260509203004 | 55 | 341 | 2.0 | 7.0 | 0.00 | 0.00 | 0.00 | 37 | 1008.3 |
| 20260509202004 | 55 | 340 | 5.0 | 15.0 | 0.00 | 0.00 | 0.00 | 35 | 1008.0 |
| 20260509201504 | 56 | 342 | 2.0 | 6.0 | 0.00 | 0.00 | 0.00 | 34 | 1008.1 |
| 20260509201005 | 56 | 42 | 2.0 | 7.0 | 0.00 | 0.00 | 0.00 | 36 | 1008.0 |
| 20260509200504 | 56 | 9 | 3.0 | 13.0 | 0.00 | 0.00 | 0.00 | 34 | 1007.8 |
| 20260509200004 | 56 | 41 | 2.0 | 13.0 | 0.00 | 0.00 | 0.00 | 36 | 1007.8 |
| 20260509195505 | 56 | 289 | 4.0 | 12.0 | 0.00 | 0.00 | 0.00 | 34 | 1007.8 |
| 20260509195004 | 55 | 310 | 1.0 | 8.0 | 0.00 | 0.00 | 0.00 | 36 | 1007.8 |
| 20260509194505 | 55 | 335 | 3.0 | 13.0 | 0.00 | 0.00 | 0.00 | 34 | 1008.0 |
| 20260509193505 | 56 | 347 | 3.0 | 8.0 | 0.00 | 0.00 | 0.00 | 35 | 1007.7 |
| 20260509193005 | 56 | 355 | 4.0 | 12.0 | 0.00 | 0.00 | 0.00 | 34 | 1007.7 |
| 20260509192504 | 55 | 348 | 4.0 | 10.0 | 0.00 | 0.00 | 0.00 | 36 | 1007.7 |
| 20260509190505 | 56 | 333 | 3.0 | 9.0 | 0.00 | 0.00 | 0.00 | 35 | 1007.6 |
| 20260509190004 | 56 | 47 | 3.0 | 7.0 | 0.00 | 0.00 | 0.00 | 37 | 1007.3 |
| 20260509185004 | 55 | 344 | 3.0 | 18.0 | 0.00 | 0.00 | 0.00 | 36 | 1007.2 |
| 20260509184504 | 56 | 356 | 3.0 | 10.0 | 0.00 | 0.00 | 0.00 | 37 | 1007.0 |
| 20260509184004 | 56 | 339 | 3.0 | 8.0 | 0.00 | 0.00 | 0.00 | 37 | 1007.0 |
| 20260509183504 | 56 | 31 | 2.0 | 9.0 | 0.00 | 0.00 | 0.00 | 38 | 1006.9 |
| 20260509183005 | 55 | 316 | 4.0 | 8.0 | 0.00 | 0.00 | 0.00 | 36 | 1007.0 |
| 20260509181504 | 56 | 314 | 5.0 | 14.0 | 0.00 | 0.00 | 0.00 | 35 | 1006.9 |
| 20260509180504 | 57 | 222 | 5.0 | 13.0 | 0.00 | 0.00 | 0.00 | 36 | 1006.8 |
| 20260509180004 | 56 | 36 | 5.0 | 12.0 | 0.00 | 0.00 | 0.00 | 35 | 1006.7 |
| 20260509175504 | 56 | 17 | 4.0 | 12.0 | 0.00 | 0.00 | 0.00 | 38 | 1006.7 |
| 20260509174504 | 55 | 343 | 7.0 | 13.0 | 0.00 | 0.00 | 0.00 | 37 | 1006.5 |
| 20260509174005 | 55 | 359 | 3.0 | 17.0 | 0.00 | 0.00 | 0.00 | 38 | 1006.5 |
| 20260509173504 | 55 | 352 | 4.0 | 10.0 | 0.00 | 0.00 | 0.00 | 37 | 1006.5 |
| 20260509173004 | 54 | 5 | 4.0 | 12.0 | 0.00 | 0.00 | 0.00 | 38 | 1006.3 |
| 20260509172504 | 55 | 0 | 3.0 | 9.0 | 0.00 | 0.00 | 0.00 | 36 | 1006.3 |
| 20260509172004 | 56 | 29 | 4.0 | 13.0 | 0.00 | 0.00 | 0.00 | 34 | 1006.2 |
| 20260509171504 | 56 | 28 | 5.0 | 13.0 | 0.00 | 0.00 | 0.00 | 35 | 1006.2 |
| 20260509171004 | 56 | 352 | 5.0 | 15.0 | 0.00 | 0.00 | 0.00 | 36 | 1006.0 |
| 20260509170004 | 56 | 338 | 5.0 | 14.0 | 0.00 | 0.00 | 0.00 | 37 | 1006.1 |
| 20260509165504 | 55 | 42 | 4.0 | 14.0 | 0.00 | 0.00 | 0.00 | 34 | 1005.8 |
| 20260509165004 | 55 | 11 | 7.0 | 15.0 | 0.00 | 0.00 | 0.00 | 35 | 1005.8 |
| 20260509164504 | 55 | 344 | 4.0 | 12.0 | 0.00 | 0.00 | 0.00 | 36 | 1005.8 |